Time,TemperatureF,DewpointF,PressureIn,WindDirection,WindDirectionDegrees,WindSpeedMPH,WindSpeedGustMPH,Humidity,HourlyPrecipIn,Conditions,Clouds,dailyrainin,SoftwareType,DateUTC
2013-07-30 00:03:00,61.0,57.0,-100.00,SE,145,1.0,3.0,87,0.00,,,-99.99,,2013-07-30 04:03:00,
2013-07-30 00:43:00,60.0,57.0,-100.00,West,275,1.0,3.0,89,0.00,,,-99.99,,2013-07-30 04:43:00,
2013-07-30 00:53:00,60.0,56.0,-100.00,SSW,200,0.0,4.0,89,0.00,,,-99.99,,2013-07-30 04:53:00,
2013-07-30 01:13:00,59.0,56.0,-100.00,SE,140,1.0,3.0,90,0.00,,,-99.99,,2013-07-30 05:13:00,
2013-07-30 01:23:00,58.0,56.0,-100.00,South,175,0.0,1.0,91,0.00,,,-99.99,,2013-07-30 05:23:00,
2013-07-30 01:45:00,59.0,57.0,-100.00,WSW,250,0.0,1.0,93,0.00,,,-99.99,,2013-07-30 05:45:00,
2013-07-30 01:52:00,60.0,57.0,-100.00,WSW,250,0.0,2.0,91,0.00,,,-99.99,,2013-07-30 05:52:00,
2013-07-30 02:13:00,57.0,55.0,-100.00,NNE,20,4.0,8.0,94,0.00,,,-99.99,,2013-07-30 06:13:00,
2013-07-30 02:23:00,57.0,55.0,-100.00,NNE,20,4.0,8.0,94,0.00,,,-99.99,,2013-07-30 06:23:00,
2013-07-30 02:43:00,58.0,56.0,-100.00,ENE,70,2.0,4.0,93,0.00,,,-99.99,,2013-07-30 06:43:00,
2013-07-30 03:23:00,57.0,55.0,-100.00,ESE,115,2.0,4.0,93,0.00,,,-99.99,,2013-07-30 07:23:00,
2013-07-30 03:43:00,56.0,54.0,-100.00,SSE,160,3.0,4.0,95,0.00,,,-99.99,,2013-07-30 07:43:00,
2013-07-30 04:03:00,55.0,55.0,-100.00,South,185,3.0,4.0,97,0.00,,,-99.99,,2013-07-30 08:03:00,
2013-07-30 04:23:00,56.0,55.0,-100.00,WSW,240,1.0,3.0,98,0.00,,,-99.99,,2013-07-30 08:23:00,
2013-07-30 05:13:00,56.0,55.0,-100.00,SSE,155,3.0,4.0,97,0.00,,,-99.99,,2013-07-30 09:13:00,
2013-07-30 05:53:00,56.0,55.0,-100.00,West,280,0.0,4.0,95,0.00,,,-99.99,,2013-07-30 09:53:00,
2013-07-30 07:53:00,57.0,55.0,-100.00,WNW,285,1.0,4.0,91,0.00,,,-99.99,,2013-07-30 11:53:00,
2013-07-30 08:22:00,59.0,56.0,-100.00,SSE,165,1.0,3.0,91,0.00,,,-99.99,,2013-07-30 12:22:00,
2013-07-30 08:33:00,59.0,57.0,-100.00,West,275,1.0,6.0,91,0.00,,,-99.99,,2013-07-30 12:33:00,
2013-07-30 08:42:00,60.0,57.0,-100.00,West,280,1.0,4.0,91,0.00,,,-99.99,,2013-07-30 12:42:00,
2013-07-30 08:53:00,60.0,57.0,-100.00,West,280,1.0,4.0,91,0.00,,,-99.99,,2013-07-30 12:53:00,
2013-07-30 09:02:00,61.0,57.0,-100.00,East,85,1.0,6.0,87,0.00,,,-99.99,,2013-07-30 13:02:00,
2013-07-30 09:52:00,65.0,58.0,-100.00,West,260,2.0,6.0,77,0.00,,,-99.99,,2013-07-30 13:52:00,
2013-07-30 10:03:00,66.0,58.0,-100.00,SSW,200,2.0,5.0,76,0.00,,,-99.99,,2013-07-30 14:03:00,
2013-07-30 10:43:00,69.0,59.0,-100.00,SW,220,1.0,6.0,71,0.00,,,-99.99,,2013-07-30 14:43:00,
2013-07-30 10:53:00,69.0,60.0,-100.00,SW,215,2.0,7.0,72,0.00,,,-99.99,,2013-07-30 14:53:00,
2013-07-30 11:12:00,70.0,59.0,-100.00,West,280,4.0,9.0,67,0.00,,,-99.99,,2013-07-30 15:12:00,
2013-07-30 11:23:00,71.0,59.0,-100.00,SSW,210,1.0,7.0,65,0.00,,,-99.99,,2013-07-30 15:23:00,
2013-07-30 11:33:00,72.0,58.0,-100.00,WSW,250,3.0,6.0,62,0.00,,,-99.99,,2013-07-30 15:33:00,
2013-07-30 11:43:00,72.0,58.0,-100.00,SW,215,4.0,8.0,61,0.00,,,-99.99,,2013-07-30 15:43:00,
2013-07-30 11:52:00,72.0,58.0,-100.00,SW,215,4.0,8.0,61,0.00,,,-99.99,,2013-07-30 15:52:00,
2013-07-30 12:02:00,73.0,58.0,-100.00,South,170,4.0,7.0,61,0.00,,,-99.99,,2013-07-30 16:02:00,
2013-07-30 12:52:00,72.0,57.0,-100.00,WNW,295,6.0,9.0,58,0.00,,,-99.99,,2013-07-30 16:52:00,
2013-07-30 13:02:00,74.0,59.0,-100.00,WNW,295,4.0,8.0,58,0.00,,,-99.99,,2013-07-30 17:02:00,
2013-07-30 13:12:00,74.0,59.0,-100.00,WNW,290,6.0,9.0,59,0.00,,,-99.99,,2013-07-30 17:12:00,
2013-07-30 13:22:00,74.0,58.0,-100.00,NW,310,3.0,9.0,58,0.00,,,-99.99,,2013-07-30 17:22:00,
2013-07-30 13:32:00,74.0,58.0,-100.00,West,260,4.0,7.0,56,0.00,,,-99.99,,2013-07-30 17:32:00,
2013-07-30 13:43:00,75.0,58.0,-100.00,SW,215,3.0,9.0,56,0.00,,,-99.99,,2013-07-30 17:43:00,
2013-07-30 13:53:00,76.0,58.0,-100.00,SSW,200,2.0,7.0,54,0.00,,,-99.99,,2013-07-30 17:53:00,
2013-07-30 14:03:00,75.0,58.0,-100.00,NW,325,4.0,7.0,55,0.00,,,-99.99,,2013-07-30 18:03:00,
2013-07-30 14:52:00,76.0,57.0,-100.00,WNW,290,2.0,9.0,52,0.00,,,-99.99,,2013-07-30 18:52:00,
2013-07-30 15:03:00,76.0,57.0,-100.00,SW,230,2.0,6.0,50,0.00,,,-99.99,,2013-07-30 19:03:00,
2013-07-30 15:52:00,76.0,58.0,-100.00,West,275,4.0,9.0,54,0.00,,,-99.99,,2013-07-30 19:52:00,
2013-07-30 16:02:00,77.0,58.0,-100.00,NE,50,1.0,6.0,53,0.00,,,-99.99,,2013-07-30 20:02:00,
2013-07-30 16:12:00,76.0,60.0,-100.00,South,190,2.0,7.0,56,0.00,,,-99.99,,2013-07-30 20:12:00,
2013-07-30 16:52:00,76.0,59.0,-100.00,SE,130,2.0,6.0,55,0.00,,,-99.99,,2013-07-30 20:52:00,
2013-07-30 17:12:00,76.0,58.0,-100.00,SW,220,1.0,6.0,52,0.00,,,-99.99,,2013-07-30 21:12:00,
2013-07-30 17:22:00,76.0,58.0,-100.00,South,190,2.0,4.0,53,0.00,,,-99.99,,2013-07-30 21:22:00,
2013-07-30 17:32:00,77.0,59.0,-100.00,South,170,2.0,7.0,54,0.00,,,-99.99,,2013-07-30 21:32:00,
2013-07-30 17:42:00,77.0,59.0,-100.00,South,170,2.0,7.0,54,0.00,,,-99.99,,2013-07-30 21:42:00,
2013-07-30 17:52:00,76.0,58.0,-100.00,SSE,165,2.0,6.0,53,0.00,,,-99.99,,2013-07-30 21:52:00,
2013-07-30 18:02:00,76.0,58.0,-100.00,SSE,165,2.0,6.0,53,0.00,,,-99.99,,2013-07-30 22:02:00,
2013-07-30 18:12:00,76.0,57.0,-100.00,South,185,5.0,7.0,52,0.00,,,-99.99,,2013-07-30 22:12:00,
2013-07-30 18:32:00,76.0,59.0,-100.00,South,170,2.0,6.0,56,0.00,,,-99.99,,2013-07-30 22:32:00,
2013-07-30 18:43:00,76.0,58.0,-100.00,SSW,195,5.0,7.0,54,0.00,,,-99.99,,2013-07-30 22:43:00,
2013-07-30 20:22:00,74.0,61.0,-100.00,SSW,205,1.0,3.0,63,0.00,,,-99.99,,2013-07-31 00:22:00,
2013-07-30 20:53:00,73.0,62.0,-100.00,ESE,115,1.0,4.0,70,0.00,,,-99.99,,2013-07-31 00:53:00,
2013-07-30 21:12:00,71.0,63.0,-100.00,ESE,115,4.0,7.0,76,0.00,,,-99.99,,2013-07-31 01:12:00,
2013-07-30 21:22:00,71.0,63.0,-100.00,ESE,115,2.0,6.0,75,0.00,,,-99.99,,2013-07-31 01:22:00,
2013-07-30 21:32:00,71.0,63.0,-100.00,ESE,110,2.0,6.0,75,0.00,,,-99.99,,2013-07-31 01:32:00,
2013-07-30 21:43:00,70.0,63.0,-100.00,ESE,105,3.0,6.0,78,0.00,,,-99.99,,2013-07-31 01:43:00,
2013-07-30 21:52:00,70.0,63.0,-100.00,ESE,105,3.0,6.0,78,0.00,,,-99.99,,2013-07-31 01:52:00,
2013-07-30 22:12:00,70.0,62.0,-100.00,East,95,2.0,5.0,76,0.00,,,-99.99,,2013-07-31 02:12:00,
2013-07-30 22:22:00,70.0,62.0,-100.00,East,100,2.0,5.0,77,0.00,,,-99.99,,2013-07-31 02:22:00,
2013-07-30 22:32:00,69.0,62.0,-100.00,East,100,2.0,3.0,78,0.00,,,-99.99,,2013-07-31 02:32:00,
2013-07-30 22:52:00,69.0,63.0,-100.00,ESE,105,2.0,4.0,81,0.00,,,-99.99,,2013-07-31 02:52:00,
2013-07-30 23:02:00,68.0,63.0,-100.00,ESE,115,1.0,4.0,83,0.00,,,-99.99,,2013-07-31 03:02:00,